Wind_Speed
10 10 11 11 12 13 13 13 14 14 15 15 16 16 16 16 16 17 17 16 16 14 13 11 9 7 6 5 6 6 8 10 11 12 14 16 18 20 21 22 23 23 24
10 11 11 12 12 13 14 14 14 15 15 15 16 16 16 16 16 16 16 16 16 14 13 12 10 9 7 7 7 7 8 9 11 12 13 14 16 19 21 22 23 23 25
11 11 12 12 13 14 14 14 15 15 15 16 16 16 17 17 16 16 16 16 15 15 13 12 11 10 9 8 8 8 9 9 11 12 13 14 16 18 19 21 23 24 24
11 12 13 13 14 14 15 15 16 16 16 17 17 17 17 17 17 17 17 16 16 15 14 14 13 12 11 10 9 10 10 11 12 13 14 15 16 18 19 21 22 23 24
13 13 14 14 15 15 16 16 17 17 17 18 18 18 18 18 18 18 17 17 17 17 16 15 14 14 13 13 12 12 12 12 13 13 14 15 17 18 19 20 22 24 24
15 15 15 16 16 17 17 18 18 19 19 19 19 19 20 20 20 20 20 19 19 19 18 17 16 16 15 15 14 14 15 15 15 15 16 17 18 19 20 20 22 24 24
16 17 17 17 18 19 20 20 20 21 21 22 21 22 22 22 23 23 23 22 22 21 21 20 20 19 18 17 17 17 17 17 17 18 18 19 20 20 22 22 22 23 24
18 18 19 19 20 21 21 22 23 23 23 24 24 24 24 25 25 25 26 26 25 25 24 24 23 22 22 21 20 20 20 20 20 20 20 21 22 22 22 23 23 24 26
20 20 21 22 22 23 23 24 25 25 26 26 27 27 27 27 28 28 28 29 28 28 27 26 26 26 25 25 24 23 23 23 23 23 23 23 23 24 24 24 25 25 27
23 23 24 25 25 26 26 26 27 28 28 29 30 30 31 31 31 32 32 32 32 31 30 30 29 29 29 29 28 27 27 26 26 26 26 26 26 26 26 26 26 27 27
26 27 27 28 28 29 29 29 30 30 31 32 33 34 34 35 35 35 35 35 35 34 34 33 32 32 33 33 32 31 30 30 29 29 28 28 28 28 28 28 28 28 28
29 29 30 31 32 33 33 33 34 35 35 36 37 37 38 38 39 39 39 38 38 37 37 37 36 35 35 35 34 34 33 33 32 31 31 30 30 30 30 30 30 30 30
32 32 33 34 35 36 37 37 38 39 40 40 41 41 41 41 42 41 41 41 41 40 40 40 39 38 37 37 36 36 35 35 34 33 33 32 32 31 31 31 31 31 31
35 36 37 37 39 40 41 41 42 42 43 44 45 45 45 45 44 44 44 43 43 43 43 42 41 41 40 39 38 38 37 37 36 35 35 34 34 33 33 33 32 32 32
39 39 40 41 42 43 43 44 45 45 46 47 48 48 47 47 47 47 47 47 46 45 45 44 43 42 42 42 40 39 39 39 38 37 37 36 35 35 34 34 34 34 33
42 43 44 45 45 46 47 47 48 49 49 50 51 51 50 50 50 49 49 49 48 47 46 45 44 43 43 43 43 41 41 40 39 39 38 38 37 36 35 35 35 34 34
45 46 47 47 48 49 50 50 51 51 52 53 53 53 53 53 52 51 50 50 49 49 47 46 45 44 44 44 44 43 43 42 41 40 39 39 39 38 37 37 36 35 35
48 49 50 50 51 51 52 53 54 55 55 55 54 54 54 53 52 51 51 51 50 49 48 47 47 46 46 45 45 44 43 43 42 42 41 41 40 39 39 38 38 37 36
51 51 52 53 54 55 55 56 57 57 56 56 55 54 54 54 53 52 51 50 49 49 48 47 46 46 46 45 45 44 44 43 44 44 42 41 41 41 40 39 38 38 38
53 54 55 56 57 57 57 58 57 57 56 56 56 55 55 54 53 52 51 50 49 48 48 47 46 46 46 46 46 46 45 44 44 44 43 42 42 42 42 41 40 39 39
55 56 57 58 58 58 58 57 57 57 57 57 56 55 54 54 53 52 50 49 48 47 47 47 46 46 46 47 47 47 46 45 44 44 44 43 42 42 42 41 41 40 39
57 57 58 58 57 57 57 57 57 57 57 57 55 54 54 53 52 50 49 48 47 45 45 46 46 45 45 45 46 46 46 46 45 44 43 42 42 42 43 42 42 41 40
58 57 57 57 57 57 56 57 57 57 56 56 55 54 53 52 50 48 47 46 46 45 44 45 45 44 43 43 44 45 45 45 45 45 44 42 42 42 42 42 42 41 40
57 57 57 57 57 57 58 58 57 56 56 55 55 54 52 50 49 47 47 46 46 46 46 46 45 45 44 44 44 45 45 45 44 45 44 42 42 41 41 42 42 41 41
57 57 57 57 58 58 59 58 57 56 55 55 54 53 51 49 48 47 46 46 46 45 45 44 43 43 44 43 43 43 44 44 44 45 45 42 42 41 40 41 41 41 41
58 58 58 58 58 59 59 58 57 55 54 53 52 50 49 48 46 45 45 44 44 43 42 41 41 40 40 39 39 40 41 42 42 43 45 43 42 41 40 41 41 41 41
Wind_Direction
308 310 312 315 317 318 320 322 325 329 333 337 339 341 342 344 347 349 351 353 353 352 351 349 346 340 326 309 289 273 257 248 246 240 241 241 238 234 232 232 233 234 233
311 312 313 314 316 317 317 318 320 324 328 332 335 337 339 339 340 342 345 348 349 350 349 347 343 337 327 311 296 283 268 255 250 245 244 243 239 236 234 234 236 236 235
309 314 313 311 312 313 314 316 318 320 323 325 328 331 333 335 336 337 338 340 342 342 342 340 337 332 324 315 300 288 277 266 257 251 249 245 240 239 238 238 238 237 236
307 310 310 309 309 310 311 313 315 317 318 320 321 324 326 328 329 331 332 332 332 332 331 330 326 322 315 310 301 291 282 274 264 258 253 248 244 243 242 239 238 238 238
304 306 307 306 307 307 308 310 312 313 314 315 316 318 320 321 322 323 324 324 323 323 321 319 317 313 307 301 295 290 284 276 267 261 255 252 248 247 246 242 240 240 242
303 304 304 304 305 305 305 305 306 308 309 310 310 313 315 315 315 315 316 316 315 314 313 310 307 304 301 296 292 287 281 275 269 263 259 255 253 251 249 246 244 243 243
300 301 302 303 304 305 304 305 305 306 306 306 306 307 309 310 311 310 310 310 310 308 306 303 300 298 296 292 288 284 280 275 269 265 261 259 257 254 251 248 247 245 243
298 300 301 302 303 304 304 304 304 304 304 303 302 302 303 305 306 306 306 305 305 303 301 298 295 292 290 287 284 281 278 274 270 266 263 261 260 257 254 252 250 248 246
296 296 297 299 300 301 302 303 302 302 302 301 300 299 299 300 301 301 301 301 300 298 296 293 289 286 285 283 280 278 276 273 271 267 264 262 260 258 256 254 253 252 250
293 293 294 295 297 298 299 301 301 300 300 300 299 298 297 297 298 298 297 297 296 294 292 289 286 283 281 279 277 275 273 271 268 266 264 262 260 258 255 254 254 253 253
292 292 293 294 295 296 298 299 299 299 299 298 298 297 296 295 295 294 294 293 292 291 290 287 284 282 281 279 276 273 271 270 267 265 263 262 261 259 256 255 255 254 253
291 291 292 293 294 295 296 297 298 298 298 298 297 296 295 295 294 293 291 290 289 288 287 286 283 280 279 277 276 274 271 268 266 265 263 261 261 259 258 256 255 254 253
291 291 292 293 294 295 295 296 296 297 297 297 297 296 295 294 292 291 289 288 287 287 286 284 282 279 277 276 273 271 270 268 266 264 263 261 259 258 257 256 256 254 254
291 291 292 292 293 294 295 296 296 297 296 297 297 296 295 294 292 290 288 287 286 285 284 282 280 278 275 274 272 269 267 266 266 264 262 260 259 257 256 256 256 255 255
291 291 292 292 293 293 295 295 296 296 297 296 296 296 294 292 291 290 288 287 285 285 283 281 279 277 274 272 269 267 265 264 264 263 262 259 257 256 255 255 255 254 254
291 291 292 293 293 293 294 295 295 296 296 296 295 295 293 291 290 289 288 287 286 284 282 280 278 275 272 270 267 264 263 261 261 261 260 258 256 254 253 253 253 254 253
291 291 292 293 293 294 294 294 295 295 295 294 294 294 293 292 290 289 288 287 284 283 281 279 276 274 271 268 265 263 261 259 258 258 258 257 256 254 253 253 253 253 253
291 292 293 293 294 294 294 294 295 295 295 294 293 293 293 291 290 288 288 287 284 281 280 278 275 272 269 266 263 261 260 257 256 256 256 256 255 254 253 252 252 252 252
292 293 293 293 294 294 294 294 295 295 295 294 293 293 292 292 290 288 287 286 285 282 279 276 274 271 268 265 263 260 259 257 255 254 254 254 253 252 251 250 250 251 250
292 293 294 294 294 294 294 294 295 295 295 295 294 293 292 291 290 288 285 285 284 281 278 275 272 270 267 265 262 260 258 257 255 253 252 252 252 251 251 250 249 250 250
293 293 294 295 295 295 294 294 294 294 295 295 294 293 292 292 291 289 285 283 282 280 277 273 271 269 267 264 262 260 258 256 255 253 251 252 252 251 250 250 249 249 250
293 294 295 295 295 295 295 294 294 295 295 294 294 293 292 291 290 289 287 283 281 279 277 273 271 269 267 264 261 259 257 255 254 252 251 251 250 249 248 248 248 248 249
294 294 295 295 295 295 294 295 295 294 294 294 293 293 291 290 289 286 285 283 280 279 277 275 271 268 267 263 260 257 255 254 253 251 249 249 248 247 247 246 246 247 248
294 294 294 295 295 295 295 295 294 294 293 292 292 292 291 289 287 285 283 282 280 278 275 274 271 267 264 262 260 256 253 253 252 248 246 246 244 244 245 245 245 245 246
294 294 294 295 295 296 296 296 295 293 292 292 292 291 290 288 286 285 283 282 281 280 276 274 271 267 265 262 259 256 253 251 250 248 244 244 244 245 244 244 244 244 245
294 294 294 295 296 297 297 296 295 293 292 292 291 290 290 290 288 286 284 283 282 280 276 273 269 267 265 261 258 255 252 250 247 245 242 241 243 244 242 242 243 243 244
Height
5839 5838 5838 5837 5836 5835 5834 5833 5832 5830 5828 5826 5824 5822 5820 5818 5815 5813 5810 5808 5805 5803 5801 5799 5798 5797 5796 5796 5796 5797 5797 5799 5800 5802 5804 5805 5807 5810 5813 5816 5819 5822 5826
5837 5836 5835 5835 5834 5833 5832 5831 5829 5828 5826 5825 5823 5821 5819 5816 5814 5812 5809 5807 5805 5803 5801 5799 5797 5796 5796 5795 5795 5795 5796 5797 5798 5799 5801 5802 5804 5806 5809 5812 5815 5818 5821
5835 5834 5833 5833 5832 5831 5829 5828 5827 5825 5824 5822 5821 5819 5817 5815 5813 5810 5808 5806 5804 5802 5800 5799 5797 5796 5795 5794 5794 5794 5794 5794 5795 5796 5798 5799 5800 5802 5804 5807 5810 5812 5815
5832 5831 5831 5830 5829 5828 5827 5825 5824 5823 5821 5819 5818 5816 5814 5812 5810 5808 5806 5804 5802 5801 5799 5797 5796 5794 5793 5792 5792 5792 5792 5792 5792 5793 5794 5795 5797 5798 5800 5802 5805 5807 5810
5829 5829 5828 5827 5826 5825 5823 5822 5821 5819 5818 5816 5814 5813 5811 5809 5807 5806 5804 5802 5800 5798 5797 5795 5794 5792 5791 5790 5789 5789 5788 5788 5789 5789 5790 5791 5793 5794 5795 5797 5799 5801 5804
5826 5825 5824 5823 5822 5821 5819 5818 5817 5815 5814 5812 5810 5809 5807 5805 5803 5802 5800 5798 5797 5795 5793 5792 5790 5789 5788 5786 5785 5785 5784 5784 5785 5785 5786 5787 5788 5789 5790 5792 5793 5796 5798
5822 5821 5820 5819 5818 5816 5815 5814 5812 5811 5809 5807 5806 5804 5803 5801 5799 5797 5795 5794 5792 5790 5789 5787 5786 5784 5783 5782 5781 5780 5780 5780 5780 5780 5781 5781 5782 5783 5784 5786 5787 5789 5791
5817 5816 5815 5814 5813 5811 5810 5808 5807 5805 5803 5802 5800 5798 5797 5795 5793 5791 5789 5787 5786 5784 5783 5781 5780 5778 5777 5776 5775 5774 5774 5774 5774 5774 5775 5775 5776 5776 5778 5779 5780 5782 5784
5812 5811 5810 5808 5807 5805 5804 5802 5800 5799 5797 5795 5793 5791 5790 5788 5786 5784 5782 5780 5778 5777 5775 5773 5772 5771 5770 5769 5768 5767 5767 5767 5767 5767 5768 5768 5769 5769 5770 5772 5774 5775 5777
5806 5805 5804 5802 5801 5799 5797 5795 5793 5792 5790 5788 5786 5784 5782 5780 5778 5775 5773 5771 5769 5768 5766 5764 5763 5762 5761 5760 5759 5759 5759 5759 5759 5759 5759 5760 5761 5762 5763 5764 5766 5767 5769
5799 5798 5796 5795 5793 5791 5790 5788 5786 5784 5782 5780 5777 5775 5772 5770 5768 5765 5763 5760 5759 5757 5756 5754 5753 5752 5750 5749 5749 5749 5749 5749 5749 5750 5750 5751 5752 5753 5754 5756 5757 5759 5760
5791 5789 5788 5786 5784 5782 5781 5778 5776 5774 5772 5769 5767 5764 5761 5759 5756 5753 5751 5748 5746 5745 5744 5742 5741 5740 5739 5738 5738 5738 5738 5738 5739 5740 5741 5742 5743 5744 5745 5746 5748 5749 5751
5782 5780 5778 5776 5774 5772 5770 5768 5765 5763 5760 5757 5754 5752 5749 5746 5743 5740 5737 5735 5733 5731 5730 5729 5727 5726 5725 5725 5725 5726 5726 5727 5728 5729 5730 5732 5733 5734 5735 5736 5738 5739 5741
5772 5770 5768 5766 5764 5761 5759 5756 5753 5750 5747 5744 5741 5737 5735 5732 5728 5725 5723 5720 5718 5716 5715 5714 5713 5712 5711 5711 5712 5713 5714 5715 5716 5717 5719 5720 5721 5723 5724 5726 5728 5729 5731
5761 5758 5756 5754 5751 5749 5746 5743 5740 5737 5732 5729 5726 5722 5719 5716 5713 5710 5707 5704 5702 5701 5699 5698 5698 5697 5697 5697 5697 5699 5700 5701 5703 5704 5706 5707 5709 5711 5713 5715 5717 5719 5721
5748 5746 5743 5740 5738 5735 5732 5730 5726 5722 5718 5714 5710 5706 5703 5699 5696 5694 5691 5688 5686 5683 5682 5682 5681 5681 5681 5681 5682 5683 5685 5687 5689 5690 5692 5694 5696 5698 5700 5703 5705 5707 5710
5735 5732 5729 5726 5723 5720 5717 5714 5711 5708 5703 5699 5694 5690 5686 5683 5679 5676 5673 5671 5669 5666 5665 5664 5664 5664 5664 5665 5666 5667 5669 5672 5674 5676 5678 5680 5683 5685 5687 5690 5692 5695 5698
5721 5718 5715 5711 5708 5704 5701 5698 5694 5691 5688 5683 5679 5674 5669 5665 5662 5659 5656 5653 5651 5649 5647 5647 5647 5647 5647 5647 5649 5650 5653 5655 5658 5661 5663 5666 5669 5671 5674 5677 5680 5682 5685
5707 5703 5699 5696 5692 5688 5684 5680 5677 5672 5669 5665 5661 5657 5652 5648 5645 5641 5638 5635 5632 5631 5630 5629 5628 5629 5629 5630 5632 5634 5636 5639 5642 5645 5648 5651 5654 5657 5660 5664 5667 5669 5672
5691 5687 5683 5679 5675 5671 5667 5663 5659 5654 5650 5646 5642 5638 5634 5630 5626 5623 5620 5617 5614 5613 5612 5611 5611 5611 5612 5613 5615 5617 5620 5623 5626 5629 5633 5636 5639 5643 5646 5650 5653 5657 5660
5675 5671 5667 5662 5658 5653 5649 5645 5640 5636 5632 5628 5624 5619 5615 5611 5608 5604 5602 5600 5597 5595 5594 5593 5593 5594 5595 5596 5597 5600 5603 5606 5609 5613 5617 5620 5624 5628 5632 5635 5639 5643 5647
5658 5654 5649 5645 5640 5636 5631 5627 5623 5618 5614 5609 5605 5602 5597 5593 5590 5587 5584 5582 5580 5578 5577 5576 5576 5576 5577 5579 5580 5583 5586 5589 5593 5597 5600 5604 5608 5613 5617 5621 5626 5629 5634
5641 5637 5632 5627 5623 5618 5614 5610 5605 5600 5596 5592 5587 5584 5580 5576 5573 5570 5567 5565 5564 5562 5561 5560 5560 5560 5561 5562 5564 5566 5569 5573 5577 5581 5585 5589 5593 5598 5602 5607 5612 5616 5620
5624 5619 5615 5610 5606 5601 5597 5592 5587 5583 5578 5574 5570 5566 5563 5559 5556 5553 5551 5549 5547 5546 5545 5543 5543 5543 5545 5546 5548 5550 5553 5557 5561 5565 5569 5573 5578 5582 5588 5593 5598 5602 5607
5607 5602 5598 5593 5588 5584 5579 5574 5569 5565 5561 5556 5552 5549 5545 5543 5540 5537 5535 5533 5531 5530 5529 5528 5527 5527 5528 5530 5532 5535 5538 5541 5545 5549 5554 5558 5564 5568 5573 5579 5584 5589 5594
5589 5585 5580 5576 5571 5566 5561 5556 5551 5547 5543 5539 5536 5532 5529 5527 5524 5522 5519 5517 5515 5514 5513 5512 5512 5512 5513 5515 5517 5520 5522 5526 5530 5534 5539 5544 5549 5555 5560 5566 5571 5576 5581